Wind_Speed
14 14 13 12 12 11 10 10 10 9 9 9 10 10 10 10 10 10 10 11 12 12 12 13 13 14 14 15 15 16 16 17 18 18 19 19 19 19 19 19 19 20 21
15 15 14 13 13 12 12 11 11 10 10 10 10 10 10 10 10 11 11 12 13 13 14 14 14 15 15 16 16 16 17 17 18 18 19 19 19 20 20 21 21 21 21
16 16 15 14 14 13 12 12 11 11 10 10 10 10 11 11 12 12 13 14 14 14 15 15 15 16 16 16 16 16 17 18 18 19 20 20 20 21 21 22 22 22 23
18 17 16 15 14 13 13 12 12 11 11 11 11 11 12 13 13 13 14 14 14 15 15 16 16 16 16 16 17 17 18 19 19 20 20 21 21 22 22 23 23 24 24
18 18 17 16 15 13 13 12 12 11 11 11 12 12 13 13 13 13 13 14 14 15 15 16 16 16 17 17 18 18 19 20 20 21 21 22 23 23 24 24 25 25 26
18 18 17 15 14 13 13 12 12 12 12 12 12 12 13 13 13 13 13 14 15 15 16 16 17 17 18 18 19 19 20 21 22 22 23 23 24 24 25 26 26 27 27
17 17 16 15 14 13 13 12 12 12 12 12 12 12 12 12 13 14 14 15 16 16 17 17 18 18 19 20 20 21 21 22 23 23 24 24 25 25 26 27 28 28 29
16 16 15 15 14 13 12 12 11 11 11 11 12 12 13 14 14 15 16 16 17 17 18 19 19 20 20 21 21 22 22 23 24 24 25 26 26 27 28 28 29 30 30
15 15 14 14 13 12 12 12 12 12 12 12 13 14 15 15 16 16 17 18 18 19 19 20 21 21 22 22 22 23 23 24 25 25 26 26 27 28 29 29 30 31 31
15 14 14 13 13 13 12 12 12 13 13 14 15 15 16 16 17 17 18 19 19 20 20 21 22 22 23 23 24 24 25 25 26 26 27 28 28 29 29 30 31 31 32
15 14 14 14 13 13 13 13 13 14 14 15 15 15 16 16 17 18 19 20 20 21 21 22 23 24 24 24 25 25 26 26 27 28 28 29 29 30 30 31 31 32 32
15 15 14 14 14 13 13 13 14 14 15 15 16 16 17 18 18 19 20 21 22 22 23 24 24 25 25 25 26 26 27 28 28 29 30 30 31 31 32 32 32 33 33
16 15 15 14 14 14 14 14 15 15 15 16 17 18 19 19 20 21 22 23 24 24 25 25 26 26 26 27 27 28 28 29 30 30 31 31 32 32 33 33 33 34 34
17 16 15 15 15 15 15 15 15 16 16 17 18 19 20 21 22 23 24 25 25 26 26 27 27 28 28 28 29 29 30 31 31 32 33 33 33 34 34 35 35 35 35
18 17 17 16 16 16 16 16 17 17 18 19 19 21 22 23 24 25 26 26 27 28 28 29 29 29 29 30 30 31 31 32 33 34 34 35 35 35 35 36 36 36 36
20 19 18 18 18 18 18 18 19 19 20 21 21 22 24 25 26 27 28 28 29 30 30 30 30 31 31 31 32 32 32 33 33 34 35 35 36 36 36 36 37 37 37
22 21 21 20 20 20 21 21 21 22 22 23 23 24 26 27 28 29 30 30 31 31 31 32 32 32 32 33 33 33 33 34 34 35 35 35 36 36 37 37 37 38 38
25 24 23 23 23 23 23 23 24 24 25 25 26 27 28 29 30 31 31 32 32 32 33 33 33 33 34 34 34 34 34 35 35 35 35 36 36 37 38 38 39 39 39
27 26 26 25 25 25 26 26 26 26 27 28 29 29 30 31 32 32 33 33 34 34 34 34 34 34 34 34 34 35 35 36 36 36 36 37 37 38 38 39 39 40 40
30 29 28 28 28 28 28 28 28 29 29 30 31 31 32 33 33 34 34 34 35 35 34 34 34 35 35 35 35 35 35 36 37 37 37 38 38 39 39 39 40 41 41
32 31 30 30 30 30 30 30 30 31 32 32 33 33 34 35 35 35 35 35 35 35 35 35 35 35 35 36 36 36 36 37 37 38 38 38 39 39 39 40 41 42 43
35 34 33 33 32 32 32 33 33 33 33 34 34 35 36 36 36 36 36 36 36 36 36 36 36 36 36 36 36 37 37 38 38 39 39 40 40 40 41 42 43 43 44
38 37 36 36 35 35 35 35 35 35 35 35 35 36 36 36 36 37 37 37 37 36 36 36 36 36 36 37 37 37 38 38 39 39 40 41 42 42 43 44 44 44 44
40 39 39 38 38 37 37 37 37 36 36 36 37 38 38 37 37 37 38 38 38 37 37 36 36 37 37 37 38 38 39 39 39 40 41 42 43 44 44 44 45 45 44
42 41 40 40 39 38 38 38 38 38 38 39 39 39 38 38 38 38 38 38 38 37 37 37 38 38 38 38 38 39 39 40 41 41 42 43 43 44 44 45 45 45 45
43 43 42 41 40 39 39 39 39 39 38 39 39 39 39 39 39 38 39 39 38 38 38 38 38 38 39 39 39 39 40 41 41 42 42 43 43 44 44 45 45 45 45
Wind_Direction
225 224 225 226 229 232 236 240 247 254 259 265 272 278 281 282 284 286 288 291 294 296 297 297 297 297 298 297 296 295 295 294 294 294 294 293 293 291 290 288 287 285 284
227 228 229 231 233 236 240 245 250 254 259 263 268 272 276 279 282 283 285 289 292 293 294 295 296 297 298 298 297 296 295 294 294 294 294 294 294 293 292 291 290 288 287
227 229 231 233 235 238 241 245 249 253 257 260 265 268 272 276 280 282 285 288 290 292 293 294 295 297 298 298 298 297 297 296 296 296 296 295 294 293 292 292 291 290 289
227 228 230 233 235 238 241 244 247 249 254 259 264 268 272 276 279 281 284 286 289 291 292 294 295 297 298 298 298 298 298 297 297 297 296 296 295 295 294 292 292 291 290
226 228 230 232 234 236 239 243 245 248 254 260 265 269 272 275 278 281 283 286 289 291 292 293 295 296 297 298 298 298 298 298 297 297 297 296 296 295 294 293 292 292 291
225 226 227 229 230 233 237 240 244 248 254 260 264 268 271 274 277 281 284 287 289 290 291 292 294 295 296 296 297 297 297 297 296 296 295 295 294 294 293 293 292 292 291
223 222 223 225 227 230 234 239 245 249 254 259 263 267 270 273 277 282 286 289 290 291 291 292 293 294 294 295 295 295 295 296 295 295 295 294 294 294 293 293 292 291 290
218 217 218 221 224 229 232 238 242 248 253 259 263 268 272 277 280 283 286 289 291 291 292 292 293 294 294 294 294 294 295 295 295 295 294 294 293 293 292 291 291 290 289
213 214 217 220 223 228 234 238 242 249 256 261 265 270 274 278 281 284 286 289 290 291 292 292 293 294 294 294 294 295 295 295 295 295 294 294 293 293 292 291 291 290 289
211 214 218 221 226 230 235 239 247 254 260 264 267 271 275 278 282 284 286 288 289 291 292 292 293 294 294 294 294 295 295 296 296 296 295 295 294 294 293 292 291 290 289
213 216 220 225 229 234 240 246 253 259 263 266 268 272 275 279 282 284 287 289 291 292 293 293 293 294 294 294 294 295 296 296 296 296 296 295 295 294 293 292 291 291 290
219 222 226 231 234 239 246 253 259 263 266 268 271 274 277 280 283 286 289 292 293 293 294 294 294 294 294 294 294 295 295 296 296 296 296 296 295 294 293 292 292 291 290
226 229 233 235 239 246 253 258 263 266 269 271 275 277 280 283 285 288 291 292 293 294 295 295 295 294 294 293 293 294 295 295 295 295 296 295 295 295 294 293 292 291 290
232 235 238 242 247 252 258 263 267 270 274 275 278 280 283 285 287 290 291 293 294 295 296 295 295 294 294 293 293 293 294 295 295 295 295 296 296 295 294 294 293 292 290
235 239 242 247 251 256 261 265 269 273 276 277 279 281 284 286 289 291 293 293 294 294 295 295 294 294 293 293 293 293 294 295 295 295 295 296 296 295 295 294 294 292 291
238 242 246 250 255 260 264 268 270 273 276 278 280 282 285 287 290 292 293 294 294 294 294 293 293 293 292 292 292 293 294 294 295 295 295 295 295 295 294 294 293 292 291
242 244 248 252 256 261 265 269 271 274 276 279 281 283 286 288 290 291 292 293 293 293 293 293 292 292 291 291 291 292 293 294 294 294 294 294 295 295 295 294 293 293 292
246 248 250 253 257 261 265 269 272 275 278 280 282 284 286 288 289 290 290 292 292 292 292 292 291 291 291 291 291 292 293 294 294 294 293 294 294 295 295 294 294 293 292
249 251 253 256 258 262 265 268 272 275 277 280 283 285 286 288 288 289 289 291 291 291 291 291 291 290 290 291 291 292 294 294 294 294 294 294 294 295 295 294 293 293 292
251 254 256 259 261 263 266 269 271 274 276 279 282 285 287 288 288 288 288 289 290 290 290 290 290 290 290 291 291 292 293 294 294 294 294 294 295 295 295 294 294 294 293
253 255 257 259 262 264 267 269 271 274 276 279 282 285 286 286 287 287 287 288 288 289 289 289 289 290 290 290 291 292 293 294 294 294 295 295 295 296 295 295 295 295 295
255 256 258 260 263 265 267 269 271 274 277 279 282 283 284 285 285 286 286 286 287 287 288 288 289 289 289 290 291 292 293 294 294 295 296 296 296 296 296 296 296 296 295
255 257 259 260 262 265 267 269 271 274 276 278 279 280 282 283 284 284 284 285 285 286 287 287 288 289 289 290 291 292 293 293 294 295 296 296 297 297 297 297 296 296 296
255 256 258 259 261 264 266 268 270 273 275 276 277 279 281 282 282 282 283 283 284 284 285 286 287 288 289 290 291 292 293 294 295 296 296 297 297 298 298 298 298 297 297
254 256 257 259 260 263 265 268 270 272 273 274 275 277 278 279 279 280 281 281 282 284 284 285 286 287 288 290 291 292 293 294 295 296 297 297 298 298 298 299 299 298 298
253 255 256 258 260 262 265 267 268 270 271 272 273 275 276 277 278 279 279 280 281 282 283 285 286 287 288 289 290 292 293 294 295 296 297 298 299 299 299 300 300 299 299
Height
5878 5878 5880 5881 5882 5882 5883 5884 5884 5885 5885 5885 5885 5885 5885 5885 5885 5885 5884 5884 5883 5883 5882 5881 5880 5880 5879 5878 5877 5876 5875 5874 5873 5872 5871 5870 5869 5868 5867 5866 5865 5864 5863
5875 5877 5878 5879 5880 5881 5881 5882 5882 5883 5883 5883 5884 5884 5884 5883 5883 5883 5883 5882 5881 5881 5880 5879 5878 5877 5877 5876 5875 5874 5873 5871 5870 5869 5868 5867 5866 5865 5864 5863 5861 5860 5859
5873 5874 5875 5877 5878 5878 5879 5880 5881 5881 5881 5882 5882 5882 5882 5882 5881 5881 5881 5880 5879 5878 5877 5877 5876 5875 5874 5873 5872 5871 5870 5869 5868 5867 5865 5864 5863 5862 5861 5859 5858 5857 5856
5870 5872 5873 5874 5875 5876 5877 5878 5879 5879 5880 5880 5880 5880 5880 5880 5879 5879 5878 5878 5877 5876 5875 5874 5873 5872 5871 5871 5870 5869 5867 5866 5865 5864 5862 5861 5860 5859 5857 5856 5854 5853 5852
5867 5869 5870 5872 5873 5874 5875 5876 5877 5877 5878 5878 5878 5878 5878 5877 5877 5877 5876 5875 5874 5874 5873 5872 5871 5870 5869 5868 5867 5866 5864 5863 5862 5860 5859 5858 5856 5855 5853 5852 5851 5849 5848
5864 5866 5868 5869 5870 5871 5873 5874 5874 5875 5875 5876 5876 5876 5876 5875 5875 5874 5873 5873 5872 5871 5870 5869 5868 5867 5866 5865 5864 5863 5861 5860 5858 5857 5856 5854 5853 5851 5850 5848 5846 5845 5843
5862 5863 5865 5866 5868 5869 5870 5871 5872 5873 5873 5873 5873 5873 5873 5873 5872 5872 5871 5870 5869 5868 5867 5866 5865 5864 5863 5862 5861 5859 5858 5856 5855 5853 5852 5850 5849 5847 5845 5843 5842 5840 5838
5859 5861 5862 5864 5865 5867 5868 5869 5869 5870 5871 5871 5871 5871 5870 5870 5870 5869 5868 5867 5866 5865 5864 5863 5862 5861 5860 5858 5857 5856 5854 5852 5851 5849 5847 5846 5844 5842 5840 5838 5837 5835 5833
5856 5858 5860 5861 5863 5864 5865 5866 5867 5867 5868 5868 5868 5868 5868 5867 5867 5866 5865 5864 5863 5862 5861 5860 5858 5857 5856 5855 5853 5851 5850 5848 5846 5844 5843 5841 5839 5837 5835 5833 5831 5829 5827
5854 5856 5857 5859 5860 5862 5863 5863 5864 5865 5865 5865 5865 5865 5864 5864 5863 5863 5862 5861 5860 5859 5858 5856 5855 5853 5852 5850 5849 5847 5845 5843 5841 5839 5837 5836 5834 5831 5829 5827 5825 5823 5821
5852 5853 5855 5856 5858 5859 5860 5861 5861 5861 5862 5862 5862 5862 5861 5861 5860 5859 5859 5857 5856 5855 5854 5852 5851 5849 5847 5846 5844 5842 5840 5838 5836 5834 5832 5830 5828 5826 5823 5821 5819 5816 5814
5849 5851 5852 5854 5855 5856 5857 5857 5858 5858 5858 5858 5858 5858 5858 5857 5856 5856 5855 5853 5852 5851 5849 5848 5846 5844 5843 5841 5839 5837 5835 5833 5831 5828 5826 5824 5822 5819 5817 5815 5812 5810 5807
5846 5848 5849 5850 5852 5853 5853 5854 5854 5855 5855 5855 5855 5854 5854 5853 5852 5852 5850 5849 5848 5846 5845 5843 5841 5840 5838 5836 5834 5832 5830 5827 5825 5822 5820 5818 5815 5813 5810 5808 5805 5803 5800
5843 5844 5846 5847 5848 5849 5850 5850 5851 5851 5851 5851 5851 5850 5849 5849 5848 5847 5846 5844 5843 5842 5840 5838 5836 5834 5832 5830 5828 5826 5824 5821 5819 5816 5814 5811 5809 5806 5803 5801 5798 5796 5793
5839 5840 5842 5843 5844 5845 5846 5846 5846 5847 5847 5847 5846 5846 5845 5844 5843 5842 5841 5839 5838 5836 5834 5833 5831 5829 5827 5825 5822 5820 5818 5815 5812 5810 5807 5804 5802 5799 5796 5793 5791 5788 5785
5835 5836 5837 5839 5839 5840 5841 5842 5842 5842 5842 5842 5842 5841 5840 5839 5838 5837 5835 5834 5832 5830 5829 5827 5825 5823 5821 5818 5816 5814 5811 5809 5806 5803 5800 5797 5795 5792 5789 5786 5783 5780 5777
5830 5831 5833 5834 5835 5836 5836 5837 5837 5837 5837 5837 5836 5836 5835 5834 5833 5831 5830 5828 5826 5824 5823 5821 5819 5817 5814 5812 5810 5807 5805 5802 5799 5796 5793 5790 5787 5784 5781 5778 5775 5772 5769
5824 5826 5827 5829 5830 5830 5831 5832 5832 5832 5832 5831 5831 5830 5829 5828 5827 5825 5824 5822 5820 5818 5816 5814 5812 5810 5808 5805 5803 5801 5798 5795 5792 5789 5786 5783 5780 5777 5774 5770 5767 5764 5761
5817 5819 5821 5823 5824 5825 5825 5826 5826 5826 5826 5825 5824 5824 5823 5822 5820 5819 5817 5815 5813 5812 5810 5808 5806 5803 5801 5798 5796 5793 5791 5788 5785 5782 5779 5775 5772 5769 5766 5762 5759 5756 5752
5810 5812 5814 5816 5817 5818 5818 5819 5820 5820 5819 5818 5818 5817 5816 5815 5813 5812 5810 5809 5807 5805 5803 5801 5799 5796 5794 5791 5789 5786 5783 5780 5777 5774 5771 5768 5764 5761 5757 5754 5750 5747 5743
5803 5805 5807 5809 5810 5810 5811 5812 5812 5812 5812 5812 5811 5810 5809 5807 5806 5804 5803 5801 5799 5798 5796 5793 5791 5789 5786 5784 5781 5779 5776 5773 5770 5766 5763 5759 5756 5752 5749 5745 5742 5738 5734
5795 5797 5799 5801 5802 5803 5804 5804 5804 5804 5804 5804 5803 5802 5801 5799 5798 5797 5795 5793 5792 5790 5788 5786 5784 5781 5779 5776 5774 5771 5768 5766 5762 5758 5755 5751 5747 5744 5740 5736 5733 5729 5725
5787 5789 5791 5792 5794 5794 5795 5795 5796 5796 5796 5796 5795 5793 5792 5791 5790 5789 5787 5786 5784 5782 5780 5778 5776 5774 5772 5769 5766 5764 5761 5758 5754 5751 5747 5743 5739 5735 5731 5727 5723 5719 5715
5778 5780 5782 5783 5785 5786 5786 5787 5787 5788 5788 5787 5786 5785 5784 5783 5782 5781 5779 5777 5776 5774 5772 5770 5768 5766 5764 5761 5758 5755 5753 5749 5746 5743 5739 5734 5730 5726 5722 5718 5713 5709 5705
5768 5770 5772 5774 5775 5776 5777 5778 5778 5779 5779 5778 5777 5776 5775 5774 5774 5772 5771 5769 5767 5766 5764 5762 5760 5758 5755 5753 5750 5747 5744 5741 5737 5734 5730 5726 5721 5716 5712 5708 5703 5699 5695
5758 5760 5762 5764 5766 5767 5767 5768 5769 5769 5769 5768 5768 5767 5766 5766 5765 5764 5762 5761 5759 5757 5756 5754 5752 5750 5747 5745 5742 5739 5736 5732 5728 5725 5721 5717 5712 5707 5703 5698 5694 5689 5685